www.pogodaiklimat.ru

Погода и климат >> Архив погоды >> Россия >> Челябинская область >> Магнитогорск


АРХИВ ПОГОДЫ в Магнитогорске

Время (UTC), дата Ветер
(напр.,м/с)
 
Видим.   Явления Облачность Т
(С)
Тd
(С)
f
(%)
Тe
(С)
Тes
(С)
Комфортность P
(гПа)
Po
(гПа)
Тmin
(С)
Tmax
(С)
R
(мм)
R24
(мм)
S
(см)
00 14.03 штиль 0 4000 м слаб. снег 10/0 600 м
[As op]
-0.1 -1.1 93 -1 -1 тепло 1008.5 961.4
03 14.03 штиль 0 20 км {снег} 10/10 600 м
[Sc]
+0.1 -0.8 94 -1 -1 тепло 1006.7 959.5 -1.0 1 27
06 14.03 ЮВ 3 10 км слаб. дождь 10/10 600 м
[Sc]
+0.3 -0.9 92 -4 -4 тепло 1003.1 956.4
09 14.03 ЮЗ 2 10 км слаб. снег {дождь} 10/0
[As op]
+0.3 -0.7 93 -3 -2 тепло 1000.6 954.0
12 14.03 ЮЗ 4 20 км {снег, дождь} 9/9 600 м
[Sc]
+1.0 -1.0 86 -4 -4 по сезону 999.1 952.7
15 14.03 СЗ 3 10 км 10/10 600 м
[Sc]
-1.6 -3.5 87 -7 -7 по сезону 1002.0 955.0 +1.2 6
18 14.03 СЗ 4
{13}
10 км позёмок {снег} 10/10 600 м
[Sc]
-4.0 -9.4 66 -10 -10 по сезону 1006.9 959.3
21 14.03 З 3
{11}
10 км {метель} ясно -4.2 -10.2 63 -9 -9 по сезону 1010.1 962.3
00 15.03 З 6
{11}
10 км позёмок ясно -4.4 -9.9 65 -12 -12 по сезону 1012.6 964.6
03 15.03 З 5
{10}
20 км {метель} ясно -4.2 -9.7 65 -11 -11 по сезону 1014.9 966.9 -4.6 1 27
06 15.03 З 6-13
{14}
20 км {метель} ясно -2.5 -9.6 58 -9 -7 по сезону 1015.9 968.0
09 15.03 З 7-15
{18}
20 км ясно -1.4 -10.3 51 -8 -6 по сезону 1016.7 969.0
12 15.03 З 6-10
{16}
20 км ясно -1.5 -10.9 49 -8 -7 по сезону 1018.5 970.8
15 15.03 З 5
{14}
10 км ясно -4.1 -11.2 58 -11 -11 по сезону 1020.5 972.2 -1.0
18 15.03 З 5
{11}
10 км ясно -5.3 -12.1 59 -12 -12 по сезону 1022.9 974.2
21 15.03 ЮВ 3
{12}
10 км ясно -6.4 -12.2 63 -12 -12 по сезону 1024.0 975.1
00 16.03 З 1 10 км ясно -12.8 -15.4 81 -15 -15 по сезону 1026.5 976.3
03 16.03 СВ 1 20 км 3/3 600 м
[Sc]
-14.7 -16.6 85 -17 -17 прохладно 1028.1 977.5 -15.2 27
06 16.03 Ю 1 20 км ясно -8.4 -13.0 69 -11 -4 по сезону 1027.4 977.9
09 16.03 Ю 2 20 км ясно -3.0 -9.4 61 -7 +1 по сезону 1026.3 977.9
12 16.03 ЮВ 3 20 км ясно -3.4 -9.0 65 -8 -7 по сезону 1025.8 977.3
15 16.03 штиль 0 10 км ясно -7.7 -10.7 79 -8 -8 по сезону 1026.5 977.3 -2.2
18 16.03 СВ 1 10 км ясно -9.1 -10.6 89 -11 -11 по сезону 1027.3 977.8
21 16.03 СВ 2 10 км ясно -9.9 -11.5 88 -14 -14 по сезону 1027.0 977.3
00 17.03 СВ 2 10 км 6/0
[Ac trans]
-10.2 -11.7 89 -15 -15 по сезону 1028.0 978.2
03 17.03 СВ 2 20 км 10/0
[Ac As]
-10.1 -11.4 90 -15 -15 по сезону 1028.4 978.6 -10.9 27
06 17.03 СВ 1 20 км 8/0
[Cs]
-4.6 -8.6 74 -7 -1 по сезону 1028.4 979.6
09 17.03 ЮВ 1 20 км 6/0
[Cs]
-2.0 -9.2 58 -4 +4 по сезону 1027.5 979.2
12 17.03 СВ 4 20 км 8/0
[Cs]
-2.7 -7.9 67 -8 -7 по сезону 1027.3 978.9
15 17.03 СВ 4 10 км 10/0
[Cs]
-5.6 -9.0 77 -12 -12 по сезону 1028.8 979.8 -0.9
18 17.03 СВ 4 10 км 10/0
[Cs]
-6.2 -9.7 76 -13 -13 по сезону 1029.5 980.4
21 17.03 С 3 10 км 10/0
[Cs]
-7.6 -10.0 83 -13 -13 по сезону 1030.4 981.0
00 18.03 СВ 3 10 км 10/0
[Cs]
-7.2 -9.8 82 -13 -13 по сезону 1030.3 981.0
03 18.03 СВ 4 20 км 9/0
[Cs]
-7.0 -11.3 71 -13 -13 по сезону 1030.5 981.2 -7.7 27
06 18.03 СВ 5 20 км 10/0
[Cs]
-4.7 -10.4 64 -11 -9 по сезону 1030.8 981.9
09 18.03 СВ 6 20 км 10/0
[As trans]
-3.2 -10.1 59 -10 -9 по сезону 1030.0 981.4
12 18.03 СВ 5 20 км 10/0
[As trans]
-2.7 -9.1 61 -9 -9 по сезону 1029.7 981.2
15 18.03 СВ 5 10 км 10/0
[As trans]
-4.1 -9.0 69 -11 -11 по сезону 1029.9 981.2 -2.6
18 18.03 СВ 5 10 км 8/0
[Ac trans]
-5.1 -9.0 74 -12 -12 по сезону 1030.4 981.4
21 18.03 СВ 4 10 км 8/0
[Ac trans]
-5.5 -8.3 81 -12 -12 по сезону 1030.6 981.6
00 19.03 СВ 4 10 км 9/0
[Ac trans]
-6.1 -8.4 84 -13 -13 по сезону 1030.1 981.0
03 19.03 СВ 4 20 км 10/10 600 м
[Sc]
-6.4 -8.5 85 -13 -13 по сезону 1030.0 980.8 -6.5 26
06 19.03 СВ 4 20 км {снег} 10/10 600 м
[Sc]
-5.9 -8.7 81 -12 -12 по сезону 1030.8 981.7
09 19.03 СВ 4 20 км 10/10 600 м
[Sc]
-4.8 -8.6 75 -11 -11 прохладно 1030.6 981.7
12 19.03 СВ 4 20 км 10/10 600 м
[Sc]
-3.3 -8.2 69 -9 -9 прохладно 1029.8 981.2
15 19.03 СВ 3 10 км 9/9 600 м
[Sc]
-4.4 -7.6 78 -10 -10 по сезону 1030.4 981.6 -3.3 0.0
18 19.03 С 1 10 км 8/8 600 м
[Sc]
-4.7 -7.4 81 -7 -7 по сезону 1030.8 981.9
21 19.03 С 2 10 км 9/9 600 м
[Sc]
-4.6 -7.7 79 -9 -9 по сезону 1029.7 980.9
00 20.03 штиль 0 10 км 8/8 600 м
[Sc]
-4.7 -7.0 84 -6 -6 тепло 1028.8 980.0
03 20.03 З 1 20 км 8/8 600 м
[Sc]
-7.0 -8.7 88 -9 -9 по сезону 1028.6 979.4 -7.0 26
06 20.03 ЮВ 1 20 км 3/3 1000 м
[Sc]
-1.1 -6.5 67 -3 +2 тепло 1026.8 978.7
09 20.03 ЮВ 1 20 км ясно +1.6 -6.4 55 0 +10 тепло 1025.5 978.0
12 20.03 ЮВ 1 20 км 3/0
[Ac trans]
+1.9 -6.5 54 +1 +3 тепло 1024.7 977.2
15 20.03 З 1 10 км ясно -1.8 -6.1 72 -4 -4 тепло 1024.7 976.6 +2.5
18 20.03 С 1 10 км ясно -5.1 -7.2 85 -7 -7 по сезону 1024.8 976.1

 

Местоположение метеостанции Магнитогорск (Челябинская область, Россия): широта 53.35 долгота 59.08 высота над уровнем моря 384 м.

В архиве по умолчанию представлена погода в Магнитогорске за последнюю неделю. Архивные данные за месяц целиком и за предыдущие месяцы, начиная с января 2011 года, Вы можете получить, выбрав интересующий диапазон дат из раскрывающегося списка и нажав кнопку "Ввод!".


*Определитесь, кто Вы:
робот инопланетянин человек

Внимание! Время в таблицах - всемирное. Для получения местного времени необходимо прибавить поправку, которая равна 5 ч.

Смотрите также архив погоды в соседних городах и на ближайших метеорологических станциях:

Погода в Верхнеуральске (Челябинская область, Россия) (59 км)
Погода в Кизильском (Челябинская область, Россия) (71 км)
Погода в Белорецке (Башкирия, Россия) (81 км)
Погода в Карталы (Челябинская область, Россия) (111 км)
Погода в Тукане (Башкирия, Россия) (112 км)
Погода в Старосубхангулово (Башкирия, Россия) (113 км)
Погода в Учалах (Башкирия, Россия) (115 км)
Погода в Николаевке (Башкирия, Россия) (116 км)
Погода в Бредах (Челябинская область, Россия) (133 км)
Погода в Ревети (Башкирия, Россия) (133 км)

Пояснения к столбцам:

Ветер - указаны скорость ветра в м/с - средняя за 10 мин, порывы в срок и между сроками (в фигурных скобках) и направление, откуда дует ветер: С - северный, СВ - северо-восточный, В - восточный, ЮВ - юго-восточный, Ю - южный, ЮЗ - юго-западный, З - западный, СЗ - северо-западный.
Видимость - горизонтальная дальность видимости в метрах или километрах. При видимости от 1 до 10 км при отсутствии осадков обычно наблюдается дымка, при ухудшении видимости до 1 км и менее - туман. В сухую погоду видимость может ухудшаться дымом, пылью или мглою.
Явления - указаны атмосферные явления, наблюдавшиеся в срок или в последний час перед сроком; фигурными скобками обозначены явления, наблюдавшиеся между сроками (за 1-3 часа до срока); квадратными скобками обозначены град или гололедные отложения с указанием их диаметра в мм.
Облачность - указаны через наклонную черту общая и нижняя облачность в баллах и высота нижней границы облаков в метрах; квадратными скобками обозначены формы облаков: Ci - перистые, Cs - перисто-слоистые, Cc - перисто-кучевые, Ac - высококучевые, As - высокослоистые, Sc - слоисто-кучевые, Ns - слоисто-дождевые, Cu - кучевые, Cb - кучево-дождевые. Подробнее классификацию облаков см. в Атласе облаков (PDF).
T - Температура воздуха - температура, измеренная на высоте 2 м над землей.
Td - Температура точки росы - температура, при понижении до которой содержащийся в воздухе водяной пар достигнет насыщения.
f - Относительная влажность воздуха - влажноcть воздуха, измеренная на высоте 2 м над землей.
Te - Эффективная температура - температура, которую ощущает одетый по сезону человек в тени. Характеристика душности погоды. При расчете учитывается влияние влажности воздуха и скорости ветра на теплоощущения человека.
Tes - Эффективная температура на солнце - температура, которую ощущает человек, с поправкой на солнечный нагрев. Характеристика знойности погоды. Зависит от высоты солнца над горизонтом, облачности и скорости ветра. Ночью, в пасмурную погоду, а также при ветре 12 м/с и более поправка равна нулю.
P - Атмосферное давление - приведенное к уровню моря атмосферное давление.
Po - Атмосферное давление - измеренное на уровне метеостанции атмосферное давление.
Tmin - Минимальная температура - минимум температуры воздуха на высоте 2 м над землей.
Tmax - Максимальная температура - максимум температуры воздуха на высоте 2 м над землей.
R - Количество осадков - Количество выпавших осадков за период времени, мм. При наведении курсора мыши на число - период времени, за который выпало указанное количество осадков.
R24 - Количество осадков - Количество выпавших осадков за 24 часа, мм.
S - Снежный покров - Высота снежного покрова, см. При наведении курсора мыши на число - состояние снежного покрова и степень покрытия местности в баллах.